Location: ??????
(55.6361°N, 38.0803°E)
Time: 21:25:40
(UTC+00:00)

CBERS-1 - Pass Details

Date: 30 March 2020
Orbit: 769 x 777 km, 98.6° (Epoch: 29 May)

Event Time Altitude Azimuth Distance (km) Brightness Sun altitude
Rises 00:24:22 0° 14° (NNE) 3,273 8.2 -20.8°
Reaches altitude 10° 00:26:43 10° 12° (NNE) 2,340 7.3 -20.6°
Maximum altitude 00:31:48 61° 293° (WNW) 879 4.1 -20.1°
Enters shadow 00:33:26 41° 232° (SW) 1,124 4.3 -19.9°
